Waarnemingen

Advertentie
Mijn weer
Hastveda, Zweden (2629): temperatuur & dauwpunt: 17.01.2018 02:00:00 - 23.01.2018 02:00:00 (CET)Hastveda, Zweden (2629): windsnelheid & windstoten: 17.01.2018 02:00:00 - 23.01.2018 02:00:00 (CET)Hastveda, Zweden (2629): windrichting: 17.01.2018 02:00:00 - 23.01.2018 02:00:00 (CET)Hastveda, Zweden (2629): luchtdruk: 17.01.2018 02:00:00 - 23.01.2018 02:00:00 (CET)Hastveda, Zweden (2629): zicht: 17.01.2018 02:00:00 - 23.01.2018 02:00:00 (CET)Hastveda, Zweden (2629): neerslag: 17.01.2018 02:00:00 - 23.01.2018 02:00:00 (CET)
Datum & Tijd tt [°C] td [°C] ff [km/u] ff [kn] fx [km/u] fx [kn] dd ppp [hPa] vv [km] rr [mm]
23.01.2018 02:00:00 -1,9 -2,5 7 4 11 6 O 1017,9 5 0,0
23.01.2018 01:00:00 -1,1 -1,5 7 4 14 8 O 1017,4 6 0,0
23.01.2018 00:00:00 -1,1 -1,5 7 4 18 10 O 1016,5 5 0,0
22.01.2018 23:00:00 -1,1 -1,4 7 4 14 8 OZO 1015,9 5 0,0
22.01.2018 22:00:00 -1,8 -2,1 11 6 14 8 O 1015,7 5 0,0
22.01.2018 21:00:00 -2,5 -2,6 7 4 11 6 O 1015,3 5 0,0
22.01.2018 20:00:00 -1,9 -2,2 7 4 14 8 O 1014,5 7 0,0
22.01.2018 19:00:00 -1,7 -2,0 7 4 18 10 O 1014,2 7 0,0
22.01.2018 18:00:00 -1,7 -1,8 11 6 22 12 OZO 1013,5 7 0,0
22.01.2018 17:00:00 -1,6 -1,9 7 4 14 8 O 1012,9 7 0,0
22.01.2018 16:00:00 -1,3 -1,7 7 4 18 10 O 1012,8 8 0,0
22.01.2018 15:00:00 -0,6 -1,2 7 4 18 10 ZO 1012,7 10 0,0
22.01.2018 14:00:00 -0,3 -1,0 7 4 18 10 ZO 1012,8 8 0,0
22.01.2018 13:00:00 - - - - - - - - - -
22.01.2018 12:00:00 - - - - - - - - - -
22.01.2018 11:00:00 - - - - - - - - - -
22.01.2018 10:00:00 -1,2 -1,3 7 4 14 8 OZO 1013,8 5 0,0
22.01.2018 09:00:00 -1,4 -1,5 7 4 18 10 ZZO 1013,9 7 0,0
22.01.2018 08:00:00 -1,2 -1,3 7 4 18 10 ZZO 1013,7 5 0,0
22.01.2018 07:00:00 -1,1 -1,2 4 2 14 8 ZO 1013,7 3,1 0,0
22.01.2018 06:00:00 -1,0 -1,1 7 4 14 8 Z 1014,1 2,5 0,0
22.01.2018 05:00:00 -0,9 -1,0 7 4 11 6 OZO 1014,3 2,1 0,2
22.01.2018 04:00:00 -0,9 -1,0 4 2 7 4 OZO 1014,8 2,1 0,1
22.01.2018 03:00:00 -0,8 -0,9 4 2 7 4 O 1015,3 2,1 0,0
22.01.2018 02:00:00 -0,8 -0,9 4 2 11 6 ZO 1015,6 2,1 0,0
22.01.2018 01:00:00 -0,7 -0,8 7 4 11 6 ZZO 1016,2 2,8 0,0
22.01.2018 00:00:00 -0,6 -0,7 4 2 7 4 Z 1016,5 3,1 0,0
21.01.2018 23:00:00 -0,5 -0,6 4 2 7 4 ZZO 1016,6 2,7 0,0
21.01.2018 22:00:00 -0,3 -0,4 4 2 4 2 ZZO 1016,5 2,6 0,0
21.01.2018 21:00:00 -0,3 -0,4 0 0 4 2 N 1016,6 2,6 0,0
21.01.2018 20:00:00 -0,4 -0,5 0 0 4 2 N 1016,7 7 0,0
21.01.2018 19:00:00 -0,3 -0,4 0 0 4 2 N 1016,6 6 0,0
21.01.2018 18:00:00 -0,2 -0,3 0 0 4 2 N 1016,7 5 0,0
21.01.2018 17:00:00 -0,1 -0,3 4 2 4 2 NW 1016,6 5 0,0
21.01.2018 16:00:00 0,0 -0,1 0 0 4 2 N 1016,3 5 0,0
21.01.2018 15:00:00 0,2 0,1 4 2 7 4 NNW 1015,9 6 0,0
21.01.2018 14:00:00 0,4 0,3 4 2 7 4 N 1015,4 9 0,0
21.01.2018 13:00:00 0,2 0,1 0 0 4 2 N 1014,9 10 0,0
21.01.2018 12:00:00 0,2 0,1 0 0 7 4 N 1014,3 5 0,0
21.01.2018 11:00:00 -0,1 -0,1 4 2 7 4 N 1013,8 12 0,0
21.01.2018 10:00:00 -0,4 -0,4 0 0 7 4 N 1013,1 7 0,0
21.01.2018 09:00:00 -0,6 -0,6 4 2 7 4 NNO 1012,2 8 0,0
21.01.2018 08:00:00 -0,8 -0,8 4 2 11 6 NO 1011,5 5 0,0
21.01.2018 07:00:00 -0,7 -0,7 4 2 11 6 NO 1010,6 4,6 0,0
21.01.2018 06:00:00 - - - - 7 4 - 1009,9 - 0,0
21.01.2018 05:00:00 -0,6 -0,6 4 2 11 6 NO 1009,0 4,6 0,0
21.01.2018 04:00:00 -0,4 -0,4 4 2 11 6 NO 1008,2 3,5 0,0
21.01.2018 03:00:00 -0,3 -0,3 7 4 11 6 NO 1007,8 1,8 0,0
21.01.2018 02:00:00 -0,3 -0,3 4 2 11 6 ONO 1007,0 0,9 0,1
21.01.2018 01:00:00 -0,3 -0,3 4 2 7 4 NO 1006,4 0,6 0,0
21.01.2018 00:00:00 -0,2 -0,3 0 0 7 4 N 1005,8 0,4 0,0
20.01.2018 23:00:00 -0,2 -0,3 4 2 7 4 NNO 1005,5 0,6 0,1
20.01.2018 22:00:00 -0,2 -0,3 4 2 7 4 ONO 1005,0 0,5 0,0
20.01.2018 21:00:00 -0,2 -0,3 4 2 7 4 ONO 1004,8 0,6 0,0
20.01.2018 20:00:00 -0,1 -0,2 4 2 7 4 ZZO 1004,4 1,0 0,0
20.01.2018 19:00:00 -0,1 -0,2 4 2 7 4 OZO 1004,2 1,1 0,0
20.01.2018 18:00:00 -0,1 -0,2 4 2 7 4 OZO 1003,9 2,1 0,0
20.01.2018 17:00:00 0,0 -0,1 4 2 7 4 OZO 1004,0 0,9 0,0
20.01.2018 16:00:00 0,0 -0,1 4 2 7 4 ONO 1003,7 0,7 0,0
20.01.2018 15:00:00 0,2 0,1 4 2 7 4 O 1003,8 2,6 0,1
20.01.2018 14:00:00 0,2 0,1 0 0 7 4 N 1003,8 1,0 0,2
20.01.2018 13:00:00 0,1 0,0 4 2 11 6 O 1003,9 2,6 0,1
20.01.2018 12:00:00 0,1 0,0 4 2 7 4 O 1004,4 6 0,1
20.01.2018 11:00:00 0,0 -0,1 4 2 7 4 O 1004,7 3,4 0,2
20.01.2018 10:00:00 -0,3 -0,4 4 2 11 6 O 1004,7 1,5 0,7
20.01.2018 09:00:00 -0,4 -0,5 4 2 11 6 O 1004,5 1,4 0,3
20.01.2018 08:00:00 -0,5 -0,6 4 2 7 4 O 1004,3 1,1 0,6
20.01.2018 07:00:00 -0,6 -0,7 4 2 7 4 O 1004,4 0,7 0,3
20.01.2018 06:00:00 -0,7 -0,8 7 4 7 4 ONO 1004,6 2,9 0,0
20.01.2018 05:00:00 -0,8 -0,9 4 2 11 6 O 1004,7 5 0,0
20.01.2018 04:00:00 -0,9 -1,0 7 4 11 6 O 1004,8 5 0,0
20.01.2018 03:00:00 -1,4 -1,5 7 4 11 6 O 1005,2 8 0,0
20.01.2018 02:00:00 -1,5 -1,6 4 2 7 4 O 1005,2 9 0,0
20.01.2018 01:00:00 -1,7 -1,8 7 4 11 6 O 1005,4 10 0,1
20.01.2018 00:00:00 -1,8 -1,9 7 4 7 4 NO 1005,5 18 0,0
19.01.2018 23:00:00 -1,7 -2,0 4 2 7 4 O 1005,4 18 0,0
19.01.2018 22:00:00 -1,8 -1,9 4 2 7 4 ONO 1005,4 16 0,0
19.01.2018 21:00:00 -1,7 -2,0 4 2 11 6 ZO 1005,2 28 0,0
19.01.2018 20:00:00 -1,6 -1,9 4 2 7 4 ZO 1005,1 35 0,0
19.01.2018 19:00:00 -1,5 -1,8 4 2 7 4 OZO 1004,8 17 0,0
19.01.2018 18:00:00 -1,5 -1,8 7 4 7 4 O 1004,6 30 0,0
19.01.2018 17:00:00 -1,7 -2,0 0 0 4 2 N 1004,7 30 0,0
19.01.2018 16:00:00 -1,7 -2,0 0 0 7 4 N 1004,2 45 0,0
19.01.2018 15:00:00 -0,8 -1,2 4 2 4 2 O 1003,8 45 0,0
19.01.2018 14:00:00 -0,8 -1,2 4 2 7 4 ZW 1003,7 45 0,0
19.01.2018 13:00:00 -1,3 -1,6 0 0 4 2 N 1003,5 40 0,0
19.01.2018 12:00:00 -2,1 -2,2 4 2 4 2 NNW 1003,2 35 0,0
19.01.2018 11:00:00 -3,0 -3,3 0 0 4 2 N 1002,8 45 0,0
19.01.2018 10:00:00 -4,2 -4,3 4 2 7 4 N 1002,3 50 0,0
19.01.2018 09:00:00 -4,6 -4,9 4 2 7 4 N 1001,6 50 0,0
19.01.2018 08:00:00 -4,4 -4,5 4 2 11 6 N 1000,7 45 0,0
19.01.2018 07:00:00 -4,0 -4,1 7 4 11 6 NNW 999,9 50 0,0
19.01.2018 06:00:00 -3,6 -3,7 7 4 14 8 NNW 999,6 45 0,0
19.01.2018 05:00:00 -3,3 -3,4 7 4 11 6 NW 998,9 50 0,0
19.01.2018 04:00:00 -2,8 -2,9 7 4 7 4 NW 998,2 45 0,0
19.01.2018 03:00:00 -2,1 -2,2 4 2 11 6 NW 997,8 45 0,0
19.01.2018 02:00:00 -2,2 -2,3 4 2 7 4 N 997,3 45 0,0
19.01.2018 01:00:00 -2,2 -2,3 4 2 11 6 N 996,6 45 0,0
19.01.2018 00:00:00 -2,3 -2,4 7 4 14 8 NNW 996,0 19 0,0
18.01.2018 23:00:00 -1,8 -1,9 11 6 14 8 NNW 995,4 13 0,0
18.01.2018 22:00:00 -1,2 -1,3 4 2 14 8 N 994,6 21 0,0
18.01.2018 21:00:00 -1,1 -1,2 7 4 14 8 N 993,9 16 0,0
18.01.2018 20:00:00 -0,7 -0,8 7 4 14 8 NNO 992,9 15 0,0
18.01.2018 19:00:00 -0,4 -0,5 7 4 14 8 NNO 991,9 13 0,0
18.01.2018 18:00:00 -0,2 -0,3 7 4 18 10 NNO 991,1 19 0,0
18.01.2018 17:00:00 -0,2 -0,3 11 6 18 10 NO 990,6 13 0,1
18.01.2018 16:00:00 -0,1 -0,2 11 6 18 10 ONO 990,1 7 0,1
18.01.2018 15:00:00 0,0 -0,1 11 6 22 12 ONO 989,8 10 0,1
18.01.2018 14:00:00 0,1 0,0 7 4 14 8 ONO 990,0 9 0,0
18.01.2018 13:00:00 0,1 0,0 11 6 14 8 O 990,2 7 0,2
18.01.2018 12:00:00 -0,1 -0,2 7 4 14 8 O 991,1 5 0,1
18.01.2018 11:00:00 -0,3 -0,4 7 4 14 8 OZO 991,6 7 0,0
18.01.2018 10:00:00 -0,7 -0,8 7 4 14 8 OZO 992,2 5 0,0
18.01.2018 09:00:00 -1,0 -1,1 7 4 11 6 OZO 993,1 5 0,0
18.01.2018 08:00:00 -1,1 -1,2 7 4 11 6 ZO 993,7 5 0,0
18.01.2018 07:00:00 -1,1 -1,2 4 2 7 4 OZO 993,8 5 0,0
18.01.2018 06:00:00 -1,5 -1,6 4 2 7 4 ZZO 994,1 4,8 0,0
18.01.2018 05:00:00 -1,5 -1,6 7 4 11 6 ZZW 994,3 5 0,0
18.01.2018 04:00:00 -1,0 -1,1 7 4 11 6 ZZW 994,5 5 0,1
18.01.2018 03:00:00 -0,5 -0,6 7 4 11 6 ZZW 994,6 7 0,0
18.01.2018 02:00:00 -0,7 -0,8 4 2 11 6 ZW 994,4 7 0,0
18.01.2018 01:00:00 -0,2 -0,3 4 2 7 4 ZZW 994,3 6 0,0
18.01.2018 00:00:00 -0,1 -0,2 7 4 14 8 ZW 994,1 2,9 0,2
17.01.2018 23:00:00 -0,1 -0,2 4 2 14 8 ZW 993,6 4,3 0,1
17.01.2018 22:00:00 -0,2 -0,3 7 4 14 8 WZW 993,2 6 0,0
17.01.2018 21:00:00 -0,2 -0,3 7 4 11 6 ZZW 992,8 5 0,0
17.01.2018 20:00:00 -0,2 -0,3 4 2 14 8 WZW 992,3 12 0,0
17.01.2018 19:00:00 -0,2 -0,3 7 4 11 6 ZW 991,8 8 0,0
17.01.2018 18:00:00 0,0 -0,1 4 2 14 8 ZW 991,2 10 0,0
17.01.2018 17:00:00 -0,2 -0,3 7 4 11 6 W 990,9 17 0,0
17.01.2018 16:00:00 0,2 -0,1 7 4 11 6 ZW 989,9 30 0,0
17.01.2018 15:00:00 0,8 0,5 7 4 11 6 W 989,3 40 0,0
17.01.2018 14:00:00 0,9 0,6 4 2 11 6 W 989,0 28 0,0
17.01.2018 13:00:00 0,8 0,7 4 2 11 6 WZW 988,5 30 0,0
17.01.2018 12:00:00 0,2 0,2 4 2 14 8 WZW 988,1 21 0,0
17.01.2018 11:00:00 -0,1 -0,1 7 4 11 6 ZW 987,7 8 0,0
17.01.2018 10:00:00 -0,1 -0,1 0 0 7 4 N 987,1 2,2 0,2
17.01.2018 09:00:00 -0,3 -0,3 4 2 11 6 WZW 986,9 2,8 0,0
17.01.2018 08:00:00 -0,3 -0,3 4 2 11 6 W 986,3 6 0,0
17.01.2018 07:00:00 -0,3 -0,3 7 4 11 6 ZW 985,6 5 0,0
17.01.2018 06:00:00 -0,1 -0,1 7 4 14 8 ZW 985,3 8 0,0
17.01.2018 05:00:00 0,2 0,2 4 2 18 10 WZW 984,8 7 0,0
17.01.2018 04:00:00 0,3 0,3 11 6 22 12 WZW 984,7 13 0,0
17.01.2018 03:00:00 0,5 0,5 7 4 18 10 WZW 984,6 8 0,0
17.01.2018 02:00:00 0,6 0,6 11 6 14 8 ZW 984,3 5 0,0

tt = temperatuur
td = dauwpunt
ff = windsnelheid
fx = windstoten
dd = windrichting
ppp = luchtdruk
vv = zicht
rr = neerslag

Weerstations in de omgeving